Regional Weather Roundup
Issued by NWS

Home | Current Version | Previous Version | Graphics & Text | Print | Product List | Glossary On
Versions: 1 2 3 4 5 6 7 8 9 10 11 12 13 14 15 16 17 18 19 20 21 22 23 24 25 26 27 28 29 30 31 32 33 34 35 36 37 38 39 40 41 42 43 44 45 46 47 48 49 50
000
ASUS43 KMPX 202301
RWRMN
WEATHER ROUNDUP FOR MINNESOTA
NATIONAL WEATHER SERVICE TWIN CITIES/CHANHASSEN MN
500 PM CST THU NOV 20 2014


NOTE: "FAIR" INDICATES FEW OR NO CLOUDS BELOW 12,000 FEET WITH NO
SIGNIFICANT WEATHER AND/OR OBSTRUCTIONS TO VISIBILITY. N/A MEANS
CURRENT SKY AND/OR WEATHER CONDITIONS ARE NOT AVAILABLE.

MNZ060>063-068>070-210000-
   Twin Cities Metro

CITY           SKY/WX    TMP DP  RH WIND       PRES   REMARKS
TWIN CITIES    CLEAR     14   1  56 NW12      30.19R WCI   0
ST PAUL        CLEAR     15   1  53 NW12      30.21R WCI   2
CRYSTAL        CLEAR     16   2  54 W8        30.18R WCI   5
BLAINE         CLEAR     18   3  53 W9        30.17R WCI   6
LAKEVILLE      CLEAR     10   1  67 W6        30.18R WCI   1
EDEN PRAIRIE   CLEAR     14   4  64 W8        30.18R WCI   3
SOUTH ST PAUL  CLEAR     17   1  50 NW7       30.18R WCI   7
LAKE ELMO      FAIR      16   1  53 NW6       30.18R WCI   7
$$
MNZ001>005-007-008-013>017-022>024-027-028-210000-
   Northwest Minnesota

CITY           SKY/WX    TMP DP  RH WIND       PRES   REMARKS
BEMIDJI        CLEAR      5  -4  66 W5        30.11R WCI  -4
HALLOCK        CLEAR      9   1  72 SE6       30.11S WCI  -1
ROSEAU         CLEAR      9   0  66 SW5       30.10S WCI   0
WARROAD        CLEAR      7   0  72 SW3       30.09S
THIEF RVR FALL CLEAR      7   0  72 S6        30.11F WCI  -3
CROOKSTON      CLEAR      9   1  72 SE7       30.14F WCI  -3
FOSSTON        CLEAR      0  -6  78 S6        30.13R WCI -12
DETROIT LAKES  CLEAR     12   5  73 CALM      30.13S
MOORHEAD       CLEAR     19   1  45 CALM      30.15S
PARK RAPIDS    CLEAR      4  -5  66 NW8       30.11R WCI  -9
MAHNOMEN       FAIR       7  -1  69 S3        30.12F
$$
MNZ006-009>011-018-025>026-210000-
   North Central Minnesota

CITY           SKY/WX    TMP DP  RH WIND       PRES   REMARKS
BAUDETTE         N/A      7  -3  64 CALM      30.08R
FLAG ISLAND    CLEAR     10   0  61 W3        30.08R
INTL FALLS     CLEAR      3  -4  72 W5        30.09R WCI  -6
WASKISH        CLEAR      9   0  66 W5        30.10S WCI   0
BIG FORK       CLEAR      9  -2  61 CALM      30.09R
LONGVILLE      CLEAR     10  -2  56 CALM      30.11R
GRAND RAPIDS   CLEAR      9  -2  61 W6        30.08R WCI  -1
CRANE LAKE     CLEAR      3  -2  78 CALM      30.10R
ORR            CLEAR      7  -4  61 CALM      30.05R
COOK           CLEAR      7  -2  66 W7        30.07R WCI  -5
WALKER         FAIR      10  -3  55 W7        30.10S WCI  -1
$$
MNZ012-019>021-037-210000-
   Northeast Minnesota

CITY           SKY/WX    TMP DP  RH WIND       PRES   REMARKS
DULUTH         CLEAR      9  -3  58 W6        30.06R WCI  -1
ELY            PTCLDY     7   0  72 W8        30.04R WCI  -6
HIBBING        CLEAR      9  -5  53 W5        30.08R WCI   1
EVELETH        CLEAR     10   0  61 W6        30.08R WCI   1
DULUTH HARBOR  CLEAR     16   1  53 CALM      30.14R
TWO HARBORS    CLEAR     12   1  62 W3        30.06R
SILVER BAY     CLEAR     10   0  61 CALM      30.05R
GRAND MARAIS     N/A     10  -1  61 NW12G23   30.05R WCI  -5
$$
MNZ029>031-032-039>041-046>048-054>057-064-210000-
   West Central Minnesota

CITY           SKY/WX    TMP DP  RH WIND       PRES   REMARKS
FERGUS FALLS   CLEAR     10   3  72 SW6       30.18R WCI   1
WHEATON        CLEAR     12   3  67 CALM      30.19S
MORRIS         CLEAR     10   5  79 CALM      30.16S
ALEXANDRIA     CLEAR     10   2  69 W7        30.14R WCI  -1
ELBOW LAKE       N/A      9   4  80 SW6       30.16R WCI  -1
WADENA         CLEAR      9   0  66 CALM      30.12S
GLENWOOD       CLEAR      9   1  72 W5        30.15S WCI   0
APPLETON       CLEAR     12   7  79 CALM      30.19S
BENSON         CLEAR      9   3  78 CALM      30.18S
ORTONVILLE     CLEAR     14   3  62 CALM      30.17S
MADISON        CLEAR     18   9  68 CALM      30.20R
WILLMAR        FAIR       9   1  72 CALM      30.19R
$$
MNZ033>034-036-042>043-049>051-058-059-210000-
   Central Minnesota

CITY           SKY/WX    TMP DP  RH WIND       PRES   REMARKS
ST CLOUD       CLEAR     14  -1  51 W3        30.16R
SAUK CENTRE    FAIR       8   1  72 W6        30.16R WCI  -2
PAYNESVILLE    CLEAR      6  -1  71 SW6       30.17S WCI  -4
AITKIN         CLEAR     14  -2  48 W3        30.10R
PINE RIVER     CLEAR     10   0  61 W3        30.14S
BRAINERD       CLEAR     12  -2  53 NW3       30.12R
STAPLES        CLEAR      5  -2  72 W6        30.13S WCI  -6
LONG PRAIRIE   FAIR      12   0  57 CALM      30.14S
LITTLE FALLS   CLEAR     12   0  57 W5        30.15S WCI   4
LITCHFIELD     CLEAR     12   7  79 W3        30.18R
BUFFALO        CLEAR     13   3  64 W7        30.19R WCI   3
MAPLE LAKE     CLEAR     13   5  69 W5        30.18R WCI   5
$$
MNZ037-044-045-052-053-210000-
   East Central Minnesota

CITY           SKY/WX    TMP DP  RH WIND       PRES   REMARKS
PRINCETON      CLEAR     12   0  57 W3        30.16R
CAMBRIDGE      CLEAR     16   1  53 CALM      30.15R
RUSH CITY      CLEAR     10  -1  60 W5        30.16R WCI   2
MOOSE LAKE     CLEAR     12  -2  52 CALM      30.10R
HINCKLEY       FAIR      14   1  57 CALM      30.13R
CLOQUET        CLEAR     10  -4  52 W5        30.08R WCI   2
MCGREGOR       CLEAR     12   1  62 NW3       30.11R
$$
MNZ071>073-080-081-089-090-097-098-210000-
   Southwest Minnesota

CITY           SKY/WX    TMP DP  RH WIND       PRES   REMARKS
MONTEVIDEO     CLEAR     12   1  62 CALM      30.20S
GRANITE FALLS  CLEAR     10   6  81 CALM      30.21S
CANBY          CLEAR     16   8  69 CALM      30.19S
MARSHALL       CLEAR     16   7  67 N5        30.18S WCI   9
REDWOOD FALLS  CLEAR     12   5  73 W7        30.20R WCI   1
OLIVIA         CLEAR     12   5  73 NW3       30.19R
PIPESTONE      CLEAR     14   7  73 CALM      30.15R
WINDOM         CLEAR     12   7  79 CALM      30.17S
WORTHINGTON    CLEAR     12   9  85 W6        30.17S WCI   3
JACKSON        CLEAR     16   7  67 CALM      30.18R
TRACY          CLEAR     16   9  74 CALM      30.18R
SLAYTON        CLEAR     13   7  77 CALM      30.17R
$$
MNZ065>067-074>077-082>085-091>093-210000-
   South Central Minnesota

CITY           SKY/WX    TMP DP  RH WIND       PRES   REMARKS
MANKATO        CLEAR     16   3  57 W7        30.20R WCI   6
NEW ULM        CLEAR     12   7  79 W6        30.20R WCI   3
ST JAMES       CLEAR     16   7  67 W5        30.21R WCI   9
FAIRMONT       CLEAR     18   5  57 NW8       30.19R WCI   7
GLENCOE        CLEAR     13   7  78 W3        30.19R
FARIBAULT      CLEAR     12   3  67 W7        30.18S WCI   2
OWATONNA       CLEAR     12   3  67 W8        30.17S WCI   1
WASECA         CLEAR     12   3  67 W7        30.20R WCI   2
ALBERT LEA     CLEAR     16   7  67 W5        30.17S WCI   9
$$
MNZ078>079-086>088-094>096-210000-
   Southeast Minnesota

CITY           SKY/WX    TMP DP  RH WIND       PRES   REMARKS
ROCHESTER      CLEAR     10   2  69 W9        30.16R WCI  -3
RED WING       CLEAR     16  -2  45 NW5       30.18R WCI   9
STANTON        CLEAR     14   3  63 W5        30.17S WCI   6
DODGE CENTER   CLEAR     12   5  73 W9        30.15S WCI   0
WINONA         CLEAR     19   5  53 W10       30.19R WCI   8
AUSTIN         CLEAR     14   7  73 W6        30.17R WCI   5
PRESTON        CLEAR     11   4  72 W9        30.16R WCI  -2
$$
ABBREVIATIONS USED IN REMARKS
   TC - TEMPERATURES IN CELSIUS
  WCI - WIND CHILL INDEX
   HX - HEAT INDEX
  VSB - VISIBILITY
$$


USA.gov is the U.S. government's official web portal to all federal, state and local government web resources and services.